TimeMDT,TemperatureF,Dew PointF,Humidity,Sea Level PressureIn,VisibilityMPH,Wind Direction,Wind SpeedMPH,Gust SpeedMPH,PrecipitationIn,Events,Conditions,WindDirDegrees,DateUTC
12:15 AM,48.2,33.8,58,30.16,10.0,SW,3.5,-,N/A,,Clear,230,2013-03-30 06:15:00
12:35 AM,44.6,32.0,61,30.17,10.0,WNW,3.5,-,N/A,,Clear,290,2013-03-30 06:35:00
12:55 AM,44.6,32.0,61,30.17,10.0,NW,5.8,-,N/A,,Clear,310,2013-03-30 06:55:00
1:15 AM,42.8,30.2,61,30.17,10.0,NNW,3.5,-,N/A,,Clear,340,2013-03-30 07:15:00
1:35 AM,46.4,33.8,62,30.18,10.0,WNW,5.8,-,N/A,,Clear,300,2013-03-30 07:35:00
1:55 AM,44.6,33.8,66,30.18,10.0,Calm,Calm,-,N/A,,Clear,0,2013-03-30 07:55:00
2:15 AM,44.6,33.8,66,30.19,10.0,WNW,6.9,-,N/A,,Clear,300,2013-03-30 08:15:00
2:35 AM,42.8,32.0,66,30.19,10.0,West,5.8,-,N/A,,Clear,270,2013-03-30 08:35:00
2:55 AM,44.6,33.8,66,30.20,10.0,SW,3.5,-,N/A,,Clear,230,2013-03-30 08:55:00
3:15 AM,44.6,33.8,66,30.20,10.0,WNW,6.9,-,N/A,,Clear,300,2013-03-30 09:15:00
3:35 AM,42.8,33.8,70,30.20,10.0,WSW,5.8,-,N/A,,Clear,240,2013-03-30 09:35:00
3:55 AM,42.8,33.8,70,30.21,10.0,WSW,6.9,-,N/A,,Clear,250,2013-03-30 09:55:00
4:15 AM,42.8,32.0,66,30.21,10.0,West,6.9,-,N/A,,Clear,270,2013-03-30 10:15:00
4:35 AM,42.8,32.0,66,30.21,10.0,West,4.6,-,N/A,,Clear,270,2013-03-30 10:35:00
4:55 AM,41.0,30.2,65,30.21,10.0,West,6.9,-,N/A,,Clear,280,2013-03-30 10:55:00
5:15 AM,42.8,32.0,66,30.21,10.0,West,6.9,-,N/A,,Clear,270,2013-03-30 11:15:00
5:35 AM,42.8,32.0,66,30.21,10.0,West,8.1,-,N/A,,Clear,270,2013-03-30 11:35:00
5:55 AM,42.8,32.0,66,30.21,10.0,West,6.9,-,N/A,,Clear,280,2013-03-30 11:55:00
6:15 AM,37.4,28.4,70,30.22,10.0,NNW,3.5,-,N/A,,Clear,340,2013-03-30 12:15:00
6:35 AM,37.4,28.4,70,30.22,10.0,North,3.5,-,N/A,,Clear,350,2013-03-30 12:35:00
6:55 AM,35.6,28.4,75,30.22,10.0,NNE,4.6,-,N/A,,Clear,30,2013-03-30 12:55:00
7:15 AM,35.6,30.2,81,30.23,10.0,NE,3.5,-,N/A,,Clear,50,2013-03-30 13:15:00
7:35 AM,35.6,28.4,75,30.23,10.0,Calm,Calm,-,N/A,,Clear,0,2013-03-30 13:35:00
7:55 AM,35.6,28.4,75,30.24,10.0,Calm,Calm,-,N/A,,Clear,0,2013-03-30 13:55:00
8:15 AM,35.6,30.2,81,30.25,10.0,Calm,Calm,-,N/A,,Clear,0,2013-03-30 14:15:00
8:35 AM,39.2,30.2,70,30.25,10.0,Calm,Calm,-,N/A,,Clear,0,2013-03-30 14:35:00
8:55 AM,42.8,33.8,70,30.25,10.0,Calm,Calm,-,N/A,,Clear,0,2013-03-30 14:55:00
9:15 AM,44.6,33.8,66,30.25,10.0,West,4.6,-,N/A,,Clear,280,2013-03-30 15:15:00
9:35 AM,46.4,35.6,66,30.25,10.0,WNW,4.6,-,N/A,,Clear,290,2013-03-30 15:35:00
9:55 AM,48.2,37.4,66,30.25,10.0,West,5.8,-,N/A,,Clear,280,2013-03-30 15:55:00
10:15 AM,50.0,37.4,62,30.25,10.0,NW,6.9,-,N/A,,Clear,310,2013-03-30 16:15:00
10:35 AM,51.8,37.4,58,30.25,10.0,West,6.9,-,N/A,,Clear,280,2013-03-30 16:35:00
10:55 AM,53.6,37.4,54,30.25,10.0,WNW,6.9,-,N/A,,Clear,300,2013-03-30 16:55:00
11:15 AM,55.4,37.4,51,30.25,10.0,West,6.9,-,N/A,,Clear,280,2013-03-30 17:15:00
11:35 AM,55.4,39.2,54,30.25,10.0,NW,6.9,-,N/A,,Clear,310,2013-03-30 17:35:00
11:55 AM,57.2,39.2,51,30.25,10.0,NW,5.8,-,N/A,,Clear,320,2013-03-30 17:55:00
12:15 PM,57.2,39.2,51,30.25,10.0,NW,4.6,-,N/A,,Clear,320,2013-03-30 18:15:00
12:35 PM,60.8,39.2,45,30.24,10.0,NNW,6.9,-,N/A,,Clear,330,2013-03-30 18:35:00
12:55 PM,60.8,37.4,42,30.24,10.0,NNW,4.6,-,N/A,,Clear,330,2013-03-30 18:55:00
1:15 PM,62.6,37.4,39,30.23,10.0,NW,8.1,-,N/A,,Clear,320,2013-03-30 19:15:00
1:35 PM,62.6,37.4,39,30.22,10.0,North,5.8,-,N/A,,Clear,350,2013-03-30 19:35:00
1:55 PM,64.4,35.6,34,30.22,10.0,NW,6.9,-,N/A,,Clear,310,2013-03-30 19:55:00
2:15 PM,64.4,35.6,34,30.21,10.0,WNW,6.9,-,N/A,,Clear,290,2013-03-30 20:15:00
2:35 PM,64.4,35.6,34,30.21,10.0,WSW,5.8,-,N/A,,Clear,240,2013-03-30 20:35:00
2:55 PM,66.2,35.6,32,30.20,10.0,NW,6.9,-,N/A,,Clear,310,2013-03-30 20:55:00
3:15 PM,66.2,33.8,30,30.19,10.0,NW,6.9,-,N/A,,Clear,310,2013-03-30 21:15:00
3:35 PM,66.2,33.8,30,30.18,10.0,West,9.2,-,N/A,,Clear,260,2013-03-30 21:35:00
3:55 PM,66.2,33.8,30,30.17,10.0,Calm,Calm,-,N/A,,Clear,0,2013-03-30 21:55:00
4:15 PM,68.0,33.8,28,30.16,10.0,North,11.5,-,N/A,,Clear,10,2013-03-30 22:15:00
4:35 PM,68.0,33.8,28,30.15,10.0,NNW,9.2,-,N/A,,Clear,330,2013-03-30 22:35:00
4:55 PM,68.0,33.8,28,30.15,10.0,NNW,5.8,-,N/A,,Clear,330,2013-03-30 22:55:00
5:15 PM,68.0,32.0,26,30.14,10.0,NNW,9.2,-,N/A,,Clear,330,2013-03-30 23:15:00
5:35 PM,68.0,30.2,24,30.13,10.0,NNW,9.2,-,N/A,,Clear,340,2013-03-30 23:35:00
5:55 PM,66.2,28.4,24,30.12,10.0,NNW,10.4,-,N/A,,Clear,330,2013-03-30 23:55:00
6:15 PM,68.0,28.4,23,30.12,10.0,North,10.4,-,N/A,,Clear,350,2013-03-31 00:15:00
6:35 PM,66.2,26.6,23,30.12,10.0,North,9.2,-,N/A,,Clear,360,2013-03-31 00:35:00
6:55 PM,66.2,28.4,24,30.11,10.0,North,9.2,-,N/A,,Clear,360,2013-03-31 00:55:00
7:15 PM,64.4,28.4,26,30.11,10.0,North,6.9,-,N/A,,Clear,350,2013-03-31 01:15:00
7:35 PM,62.6,28.4,27,30.10,7.0,NNW,6.9,-,N/A,,Clear,340,2013-03-31 01:35:00
7:55 PM,62.6,26.6,26,30.10,10.0,NNW,5.8,-,N/A,,Clear,330,2013-03-31 01:55:00
8:15 PM,60.8,26.6,27,30.10,10.0,NNW,5.8,-,N/A,,Clear,330,2013-03-31 02:15:00
8:35 PM,59.0,26.6,29,30.10,10.0,NW,3.5,-,N/A,,Clear,320,2013-03-31 02:35:00
8:55 PM,59.0,26.6,29,30.10,10.0,WNW,3.5,-,N/A,,Clear,300,2013-03-31 02:55:00
9:15 PM,57.2,26.6,31,30.10,10.0,Calm,Calm,-,N/A,,Clear,0,2013-03-31 03:15:00
9:35 PM,57.2,26.6,31,30.10,10.0,WSW,3.5,-,N/A,,Clear,240,2013-03-31 03:35:00
9:55 PM,53.6,26.6,35,30.10,10.0,WSW,3.5,-,N/A,,Clear,240,2013-03-31 03:55:00
10:15 PM,53.6,28.4,38,30.10,10.0,WSW,3.5,-,N/A,,Clear,240,2013-03-31 04:15:00
10:35 PM,51.8,26.6,38,30.10,10.0,Calm,Calm,-,N/A,,Clear,0,2013-03-31 04:35:00
10:55 PM,44.6,24.8,46,30.10,10.0,ENE,5.8,-,N/A,,Clear,60,2013-03-31 04:55:00
11:15 PM,46.4,26.6,46,30.10,10.0,East,3.5,-,N/A,,Clear,90,2013-03-31 05:15:00
11:35 PM,44.6,26.6,49,30.10,10.0,SE,3.5,-,N/A,,Clear,130,2013-03-31 05:35:00
11:55 PM,42.8,24.8,49,30.10,10.0,Calm,Calm,-,N/A,,Clear,0,2013-03-31 05:55:00